TimeEST,TemperatureF,Dew PointF,Humidity,Sea Level PressureIn,VisibilityMPH,Wind Direction,Wind SpeedMPH,Gust SpeedMPH,PrecipitationIn,Events,Conditions,WindDirDegrees,DateUTC
12:02 AM,32.0,30.2,93,30.50,10.0,SW,3.5,-,N/A,,Clear,220,2013-01-10 05:02:00
12:22 AM,32.0,30.2,93,30.51,7.0,Calm,Calm,-,N/A,,Clear,0,2013-01-10 05:22:00
12:43 AM,32.0,30.2,93,30.51,7.0,Calm,Calm,-,N/A,,Clear,0,2013-01-10 05:43:00
1:02 AM,30.2,28.4,93,30.52,7.0,Calm,Calm,-,N/A,,Clear,0,2013-01-10 06:02:00
1:22 AM,30.2,28.4,93,30.52,5.0,Calm,Calm,-,N/A,,Clear,0,2013-01-10 06:22:00
1:42 AM,30.2,30.2,100,30.52,5.0,Calm,Calm,-,N/A,,Clear,0,2013-01-10 06:42:00
2:02 AM,28.4,28.4,100,30.52,2.0,Calm,Calm,-,N/A,,Clear,0,2013-01-10 07:02:00
2:22 AM,28.4,26.6,93,30.51,0.5,Calm,Calm,-,N/A,Fog,Light Freezing Fog,0,2013-01-10 07:22:00
2:42 AM,26.6,24.8,93,30.52,0.2,Calm,Calm,-,N/A,Fog,Light Freezing Fog,0,2013-01-10 07:42:00
3:02 AM,24.8,24.8,100,30.52,0.2,Calm,Calm,-,N/A,Fog,Light Freezing Fog,0,2013-01-10 08:02:00
3:22 AM,23.0,23.0,100,30.51,2.5,Calm,Calm,-,N/A,,Clear,0,2013-01-10 08:22:00
3:42 AM,23.0,23.0,100,30.51,2.0,Calm,Calm,-,N/A,,Clear,0,2013-01-10 08:42:00
4:03 AM,24.8,23.0,93,30.50,2.5,Calm,Calm,-,N/A,,Clear,0,2013-01-10 09:03:00
4:22 AM,26.6,24.8,93,30.50,2.0,Calm,Calm,-,N/A,,Clear,0,2013-01-10 09:22:00
4:42 AM,24.8,23.0,93,30.50,1.2,Calm,Calm,-,N/A,,Mist,0,2013-01-10 09:42:00
5:03 AM,24.8,23.0,93,30.49,0.8,Calm,Calm,-,N/A,,Mist,0,2013-01-10 10:03:00
5:22 AM,23.0,23.0,100,30.50,3.0,Calm,Calm,-,N/A,,Clear,0,2013-01-10 10:22:00
5:42 AM,23.0,23.0,100,30.50,1.0,Calm,Calm,-,N/A,,Mist,0,2013-01-10 10:42:00
6:02 AM,23.0,21.2,93,30.50,1.8,Calm,Calm,-,N/A,,Mist,0,2013-01-10 11:02:00
6:22 AM,23.0,21.2,93,30.51,3.0,Calm,Calm,-,N/A,,Scattered Clouds,0,2013-01-10 11:22:00
6:42 AM,23.0,23.0,100,30.52,3.0,Calm,Calm,-,N/A,,Clear,0,2013-01-10 11:42:00
7:03 AM,24.8,23.0,93,30.52,1.5,Calm,Calm,-,N/A,,Mist,0,2013-01-10 12:03:00
7:42 AM,24.8,23.0,93,30.53,0.2,Calm,Calm,-,N/A,Fog,Light Freezing Fog,0,2013-01-10 12:42:00
8:03 AM,24.8,23.0,93,30.54,1.0,Calm,Calm,-,N/A,,Mist,0,2013-01-10 13:03:00
8:22 AM,24.8,23.0,93,30.55,0.2,Calm,Calm,-,N/A,Fog,Light Freezing Fog,0,2013-01-10 13:22:00
8:42 AM,24.8,23.0,93,30.56,0.2,Calm,Calm,-,N/A,Fog,Light Freezing Fog,0,2013-01-10 13:42:00
9:03 AM,26.6,24.8,93,30.55,0.2,Calm,Calm,-,N/A,Fog,Light Freezing Fog,0,2013-01-10 14:03:00
9:42 AM,28.4,28.4,100,30.54,2.5,East,5.8,-,N/A,,Clear,90,2013-01-10 14:42:00
10:03 AM,30.2,30.2,100,30.54,5.0,ESE,5.8,-,N/A,,Clear,110,2013-01-10 15:03:00
10:22 AM,30.2,30.2,100,30.54,7.0,East,6.9,-,N/A,,Clear,100,2013-01-10 15:22:00
10:42 AM,32.0,32.0,100,30.54,10.0,East,8.1,-,N/A,,Clear,100,2013-01-10 15:42:00
11:02 AM,32.0,30.2,93,30.53,10.0,East,10.4,-,N/A,,Clear,100,2013-01-10 16:02:00
11:22 AM,33.8,28.4,81,30.53,10.0,ESE,10.4,-,N/A,,Clear,110,2013-01-10 16:22:00
11:42 AM,35.6,28.4,75,30.53,10.0,ESE,8.1,-,N/A,,Clear,120,2013-01-10 16:42:00
12:02 PM,35.6,28.4,75,30.51,10.0,ESE,12.7,-,N/A,,Clear,120,2013-01-10 17:02:00
12:22 PM,35.6,28.4,75,30.50,10.0,ESE,10.4,-,N/A,,Clear,110,2013-01-10 17:22:00
12:42 PM,35.6,28.4,75,30.49,10.0,ESE,6.9,-,N/A,,Clear,110,2013-01-10 17:42:00
1:02 PM,35.6,28.4,75,30.48,10.0,ESE,5.8,-,N/A,,Clear,110,2013-01-10 18:02:00
1:22 PM,35.6,28.4,75,30.47,10.0,SE,9.2,-,N/A,,Clear,130,2013-01-10 18:22:00
1:42 PM,35.6,28.4,75,30.46,10.0,ESE,8.1,-,N/A,,Clear,120,2013-01-10 18:42:00
2:02 PM,35.6,28.4,75,30.44,10.0,ESE,9.2,-,N/A,,Clear,110,2013-01-10 19:02:00
2:22 PM,35.6,28.4,75,30.44,10.0,ESE,8.1,-,N/A,,Scattered Clouds,110,2013-01-10 19:22:00
2:42 PM,35.6,28.4,75,30.43,10.0,East,5.8,-,N/A,,Mostly Cloudy,100,2013-01-10 19:42:00
3:02 PM,35.6,28.4,75,30.42,10.0,East,9.2,-,N/A,,Scattered Clouds,100,2013-01-10 20:02:00
3:22 PM,35.6,28.4,75,30.40,10.0,East,10.4,-,N/A,,Mostly Cloudy,100,2013-01-10 20:22:00
3:42 PM,35.6,28.4,75,30.40,10.0,ESE,8.1,-,N/A,,Overcast,110,2013-01-10 20:42:00
4:02 PM,35.6,28.4,75,30.39,10.0,ESE,6.9,-,N/A,,Overcast,120,2013-01-10 21:02:00
4:22 PM,35.6,28.4,75,30.39,10.0,SE,6.9,-,N/A,,Mostly Cloudy,130,2013-01-10 21:22:00
4:42 PM,35.6,28.4,75,30.36,10.0,East,10.4,-,N/A,,Overcast,100,2013-01-10 21:42:00
5:02 PM,35.6,28.4,75,30.36,10.0,ESE,10.4,-,N/A,,Overcast,110,2013-01-10 22:02:00
5:22 PM,35.6,28.4,75,30.37,10.0,SE,9.2,-,N/A,,Overcast,130,2013-01-10 22:22:00
5:43 PM,35.6,28.4,75,30.37,10.0,ESE,3.5,-,N/A,,Overcast,120,2013-01-10 22:43:00
6:02 PM,35.6,30.2,81,30.36,10.0,ESE,3.5,-,N/A,,Overcast,110,2013-01-10 23:02:00
6:22 PM,33.8,30.2,87,30.35,10.0,ESE,3.5,-,N/A,,Overcast,120,2013-01-10 23:22:00
6:43 PM,35.6,30.2,81,30.34,10.0,ESE,6.9,-,N/A,,Overcast,110,2013-01-10 23:43:00
7:02 PM,35.6,30.2,81,30.32,10.0,ESE,8.1,-,N/A,,Overcast,110,2013-01-11 00:02:00
7:22 PM,35.6,30.2,81,30.32,10.0,ESE,8.1,-,N/A,,Overcast,110,2013-01-11 00:22:00
7:43 PM,35.6,30.2,81,30.31,10.0,SE,6.9,-,N/A,,Overcast,130,2013-01-11 00:43:00
8:02 PM,35.6,30.2,81,30.30,10.0,SE,5.8,-,N/A,,Overcast,130,2013-01-11 01:02:00
8:22 PM,35.6,30.2,81,30.29,10.0,ESE,6.9,-,N/A,,Mostly Cloudy,110,2013-01-11 01:22:00
8:42 PM,35.6,30.2,81,30.27,10.0,ESE,9.2,-,N/A,,Overcast,110,2013-01-11 01:42:00
9:02 PM,35.6,30.2,81,30.26,10.0,ESE,8.1,-,N/A,,Overcast,110,2013-01-11 02:02:00
9:22 PM,35.6,30.2,81,30.25,10.0,ESE,6.9,-,N/A,,Overcast,110,2013-01-11 02:22:00
9:42 PM,35.6,30.2,81,30.24,10.0,ESE,6.9,-,N/A,,Overcast,110,2013-01-11 02:42:00
10:02 PM,35.6,28.4,75,30.24,10.0,SE,3.5,-,N/A,,Overcast,140,2013-01-11 03:02:00
10:22 PM,37.4,28.4,70,30.22,10.0,ESE,6.9,-,N/A,,Overcast,120,2013-01-11 03:22:00
10:42 PM,37.4,28.4,70,30.21,10.0,SE,6.9,-,N/A,,Overcast,130,2013-01-11 03:42:00
11:02 PM,37.4,28.4,70,30.19,10.0,ESE,11.5,-,N/A,,Overcast,110,2013-01-11 04:02:00
11:22 PM,37.4,28.4,70,30.17,10.0,ESE,10.4,-,N/A,,Overcast,120,2013-01-11 04:22:00
11:42 PM,37.4,30.2,75,30.17,10.0,SE,6.9,-,N/A,,Mostly Cloudy,130,2013-01-11 04:42:00